Location: ??????????
(42.1626°N, 44.1160°E)
Time: 13:38:00
(UTC+00:00)

Cosmos 2366 rocket - Pass Details

Date: 03 March 2021
Orbit: 954 x 997 km, 82.9° (Epoch: 13 April)

Event Time Altitude Azimuth Distance (km) Brightness Sun altitude
Rises 16:34:44 0° 175° (S) 3,674 6.9 -19.1°
Reaches altitude 10° 16:37:15 10° 172° (S) 2,736 6.2 -19.5°
Maximum altitude 16:43:27 63° 93° (E) 1,100 3.9 -20.6°
Drops below altitude 10° 16:49:43 10° 14° (NNE) 2,773 6.3 -21.8°
Sets 16:52:17 0° 11° (NNE) 3,728 7.1 -22.3°
